Home > Weather > Seattle > Past weeks

Flag for USA Past Weather in Seattle, Washington, USA — Yesterday and Last 2 Weeks

Now
63 °F

Sunny.


Feels Like: 63 °F
Forecast: 63 / 82 °F
Wind: 5 mph from Northwest

Location: Seattle Boeing Field

Current Time: Jul 28, 2016 at 7:38:21 AM

Latest Report: Jul 28, 2016 at 6:53 AM


Visibility: 10 mi

Pressure: 30.12 "Hg

Humidity: 78%

Dew Point: 56 °F

Location of SeattleLocation

Past Weather in Seattle — Graph

°F

Seattle Temperature Yesterday

Maximum temperature yesterday: 83 °F (at 4:53 PM)
Minimum temperature yesterday: 60 °F (at 3:53 AM)
Average temperature yesterday: 71 °F

High & Low Weather Summary for the Past Weeks

 TemperatureHumidityPressure
High84 °F (Jul 25, 3:53 PM)90% (Jul 22, 7:53 AM)30.27 "Hg (Jul 22, 7:53 AM)
Low58 °F (Jul 14, 5:53 AM)30% (Jul 20, 4:53 PM)29.88 "Hg (Jul 17, 6:53 PM)
Average68 °F61%30.10 "Hg
* Reported Jul 13 5:53 AM — Jul 28 5:53 AM, Seattle, Weather by CustomWeather, © 2016

Note: Actual official high and low records may vary slightly from our data, if they occured in-between our weather recording intervals... More about our weather records

Advertising

Seattle Weather History for the Previous 24 Hours

Scroll right to see more
 ConditionsComfort  
Time TempWeatherWind HumidityBarometerVisibility
5:53 AM
Thu, Jul 28
62 °FClear.3 mph78%30.11 "Hg10 mi
4:53 AM63 °FClear.3 mph78%30.10 "Hg10 mi
3:53 AM64 °FClear.5 mph75%30.09 "Hg10 mi
2:53 AM66 °FClear.5 mph70%30.09 "Hg10 mi
1:53 AM67 °FClear.3 mph71%30.09 "Hg10 mi
12:53 AM69 °FClear.3 mph66%30.09 "Hg10 mi
11:53 PM
Wed, Jul 27
71 °FClear.3 mph61%30.10 "Hg10 mi
10:53 PM74 °FClear.No wind53%30.09 "Hg10 mi
9:53 PM73 °FClear.3 mph53%30.09 "Hg10 mi
8:53 PM77 °FSunny.7 mph48%30.07 "Hg10 mi
7:53 PM80 °FSunny.8 mph42%30.05 "Hg10 mi
6:53 PM82 °FPassing clouds.7 mph41%30.06 "Hg10 mi
5:53 PM82 °FPassing clouds.8 mph38%30.06 "Hg10 mi
4:53 PM83 °FPassing clouds.8 mph38%30.07 "Hg10 mi
3:53 PM81 °FPassing clouds.6 mph42%30.08 "Hg10 mi
2:53 PM80 °FSunny.10 mph44%30.10 "Hg10 mi
1:53 PM78 °FSunny.9 mph48%30.11 "Hg10 mi
12:53 PM76 °FSunny.9 mph54%30.11 "Hg10 mi
11:53 AM74 °FPassing clouds.7 mph56%30.12 "Hg10 mi
10:53 AM72 °FScattered clouds.10 mph55%30.12 "Hg10 mi
9:53 AM69 °FScattered clouds.7 mph63%30.14 "Hg10 mi
8:53 AM68 °FSunny.3 mph65%30.14 "Hg10 mi
7:53 AM64 °FSunny.No wind73%30.14 "Hg10 mi
Weather by CustomWeather, © 2016

See weather overviewHow to use our weather pages